Total_Precipitation_Accumulation
0.59 0.76 0.81 0.72 0.62 0.66 0.72 0.76 0.61 0.54 0.49 0.44 0.35 0.29 0.34 0.29 0.22 0.27 0.30 0.35 0.40 0.33
0.33 0.32 0.43 0.34 0.23 0.24 0.32 0.38 0.46 0.48 0.52 0.48 0.38 0.32 0.30 0.28 0.24 0.22 0.25 0.31 0.33 0.37
0.07 0.08 0.10 0.12 0.19 0.26 0.22 0.19 0.19 0.23 0.23 0.18 0.19 0.21 0.21 0.22 0.26 0.32 0.29 0.25 0.26 0.26
0.02 0.04 0.03 0.04 0.05 0.09 0.09 0.08 0.08 0.08 0.08 0.08 0.07 0.08 0.08 0.10 0.14 0.21 0.21 0.20 0.21 0.23
0.04 0.04 0.04 0.04 0.04 0.05 0.06 0.05 0.05 0.06 0.05 0.06 0.06 0.09 0.15 0.20 0.21 0.21 0.22 0.19 0.23 0.25
0.03 0.03 0.04 0.05 0.05 0.05 0.05 0.04 0.04 0.03 0.05 0.07 0.11 0.13 0.14 0.14 0.11 0.12 0.14 0.15 0.18 0.21
0.03 0.03 0.04 0.05 0.06 0.06 0.04 0.04 0.04 0.03 0.04 0.04 0.04 0.05 0.06 0.08 0.11 0.14 0.16 0.20 0.24 0.30
0.08 0.09 0.06 0.05 0.06 0.07 0.06 0.05 0.05 0.05 0.05 0.06 0.07 0.10 0.12 0.16 0.24 0.35 0.43 0.50 0.50 0.47
0.10 0.07 0.10 0.07 0.07 0.12 0.17 0.17 0.20 0.22 0.16 0.16 0.24 0.44 0.37 0.35 0.37 0.37 0.37 0.35 0.31 0.31
0.19 0.08 0.11 0.24 0.18 0.14 0.18 0.38 0.53 0.56 0.60 0.70 0.82 0.91 0.75 0.61 0.46 0.43 0.37 0.33 0.29 0.22
0.33 0.36 0.28 0.43 0.74 0.77 0.74 0.88 0.78 0.69 0.82 0.89 0.82 0.70 0.53 0.49 0.36 0.31 0.29 0.24 0.12 0.05
0.77 0.92 1.03 0.94 0.87 1.12 0.88 0.81 0.71 0.57 0.48 0.45 0.43 0.29 0.18 0.12 0.10 0.08 0.05 0.03 0.01 0.02
0.74 0.83 0.89 0.89 0.84 0.74 0.60 0.60 0.49 0.38 0.33 0.24 0.14 0.08 0.05 0.04 0.03 0.02 0.01 0.00 0.00 0.01
0.75 0.69 0.53 0.46 0.44 0.31 0.23 0.21 0.15 0.08 0.05 0.02 0.01 0.00 0.00 0.00 0.00 0.00 0.01 0.01 0.01 0.00